sat.trackr.live / text

‹ back to catalog

YUNYAO-1 44

NORAD 63345 · 2025-059B

PAYLOAD ACTIVE UNKNOWN

§ Identity

Operator
Country
PRC
Launch date
2025-03-21
Launch site
JSC
Launch vehicle
Mass (kg)
RCS (m²)

External: N2YO · Heavens-Above · Gunter

§ Orbital elements

Epoch: 2026-05-25T03:49:02.225856Z

Period
95.31 min
Inclination
97.6097°
Eccentricity
0.0015682
Mean motion
15.10864542 rev/d
Perigee alt
522.7 km
Apogee alt
544.4 km
Semi-major
6,911.7 km
B*
1.5999e-4
RAAN
326.6099°
Arg perigee
233.3734°
Mean anomaly
126.6054°
Rev number
6,482

§ Raw data

YUNYAO-1 441 63345U 25059B   26145.15905354  .00002603  00000+0  15999-3 0  99982 63345  97.6097 326.6099 0015682 233.3734 126.6054 15.10864542 64823

JSON: /api/v1/satellites/63345 · /tle

For live sub-satellite position, see the globe view (requires WebGL).

§ Visibility from observer

Set your observer location to see the next 7 days of passes ≥ 10°. The values pass through the URL so the page stays shareable.

No JS? Fill the form by hand. The geolocation button needs JavaScript.